Starlink 4648

operational
NORAD ID: 53602 Int'l Des: 2022-104 Owner: SPXS Country: US Constellation: starlink
LEOCIRCULAR

Starlink 4648について

説明を読み込み中...

リアルタイム位置

3D地球を読み込み中...

次回通過

高度履歴

Altitude vs Time

uPlot chart will show altitude changes over time

軌道要素

1 53602U 22104Q 25303.84365962 .00000054 00000-0 21465-4 0 9992
2 53602 53.2188 101.9626 0001341 83.8827 276.2318 15.08840073176082
Epoch: Oct 30, 2025 • Age: 14 hours

現在のステータス

高度 552.4 km
速度 7.59 km/s
衛星直下点 -37.27°S, 130.2°W
打ち上げ日 Aug 28, 2022
運用期間 3.1 years
タイプ internet

技術仕様

分類 Payload
質量 300.00 kg
乾燥質量 290.00 kg
総質量 300.00 kg
長さ 0.20 m
直径 2.80 m
スパン 9.00 m
形状 Box + pan
製造者 SPXS
バスタイプ Starlink
フェーズステータス In Orbit
所有者/国 SPXS/US

大規模コンステレーション

Loading constellations...